Orbital Elements at Epoch 2459000.5 (2020-May-31.0) TDB
Reference: JPL 21 (heliocentric ecliptic J2000)
Element | Value | Uncertainty (1-sigma) | Units |
e | .1520625181183456 | 5.9304e-08 | |
a | 3.113782695618289 | 2.0211e-08 | au |
q | 2.640293058049242 | 1.89e-07 | au |
i | 27.26623231045069 | 6.069e-06 | deg |
node | 239.1511799006211 | 1.04e-05 | deg |
peri | 191.0519188532442 | 1.8721e-05 | deg |
M | 321.5580758836064 | 1.6014e-05 | deg |
tp | 2459214.805587500670 (2020-Dec-31.30558750) | 8.9814e-05 | TDB |
period | 2006.923775892383 5.49 | 1.954e-05 5.35e-08 | d yr |
n | .1793790099675934 | 1.7465e-09 | deg/d |
Q | 3.587272333187336 | 2.3285e-08 | au |
|
| | Orbit Determination Parameters
Additional Information
|